| time (UTC) | temp F | wind direction | speed MPH | gust MPH | rain 1hr in | rain 24hr in | rain mn in | humidity % | barometer mb |
| 20260906201513 | 83 | 181 | 4.0 | 9.0 | 0.00 | 0.00 | 0.00 | 65 | 1018.9 |
| 20260906201016 | 83 | 242 | 2.0 | 10.0 | 0.00 | 0.00 | 0.00 | 64 | 1018.9 |
| 20260906200518 | 83 | 182 | 3.0 | 10.0 | 0.00 | 0.00 | 0.00 | 64 | 1018.8 |
| 20260906200015 | 84 | 165 | 7.0 | 10.0 | 0.00 | 0.00 | 0.00 | 62 | 1018.9 |
| 20260906195515 | 85 | 152 | 4.0 | 9.0 | 0.00 | 0.00 | 0.00 | 62 | 1018.9 |
| 20260906195018 | 85 | 175 | 3.0 | 11.0 | 0.00 | 0.00 | 0.00 | 64 | 1018.9 |
| 20260906194520 | 85 | 215 | 4.0 | 11.0 | 0.00 | 0.00 | 0.00 | 63 | 1019.0 |
| 20260906194015 | 85 | 154 | 3.0 | 9.0 | 0.00 | 0.00 | 0.00 | 63 | 1019.1 |
| 20260906193519 | 84 | 195 | 2.0 | 9.0 | 0.00 | 0.00 | 0.00 | 65 | 1019.2 |
| 20260906193018 | 84 | 209 | 3.0 | 10.0 | 0.00 | 0.00 | 0.00 | 64 | 1019.1 |
| 20260906192516 | 84 | 159 | 6.0 | 11.0 | 0.00 | 0.00 | 0.00 | 64 | 1019.1 |
| 20260906192016 | 84 | 112 | 4.0 | 11.0 | 0.00 | 0.00 | 0.00 | 66 | 1019.1 |
| 20260906191521 | 84 | 178 | 2.0 | 8.0 | 0.00 | 0.00 | 0.00 | 66 | 1019.1 |
| 20260906191003 | 84 | 243 | 1.0 | 9.0 | 0.00 | 0.00 | 0.00 | 65 | 1019.2 |
| 20260906190509 | 83 | 182 | 3.0 | 9.0 | 0.00 | 0.00 | 0.00 | 65 | 1019.3 |
| 20260906190023 | 83 | 181 | 3.0 | 9.0 | 0.00 | 0.00 | 0.00 | 70 | 1019.1 |
| 20260906185504 | 83 | 183 | 2.0 | 9.0 | 0.00 | 0.00 | 0.00 | 67 | 1019.3 |
| 20260906185008 | 83 | 111 | 0.0 | 8.0 | 0.00 | 0.00 | 0.00 | 67 | 1019.3 |
| 20260906184531 | 82 | 180 | 4.0 | 8.0 | 0.00 | 0.00 | 0.00 | 69 | 1019.4 |
| 20260906184003 | 82 | 157 | 1.0 | 10.0 | 0.00 | 0.00 | 0.00 | 69 | 1019.4 |
| 20260906183508 | 82 | 173 | 4.0 | 10.0 | 0.00 | 0.00 | 0.00 | 69 | 1019.4 |
| 20260906183033 | 81 | 175 | 2.0 | 8.0 | 0.00 | 0.00 | 0.00 | 71 | 1019.5 |
| 20260906182505 | 81 | 237 | 1.0 | 9.0 | 0.00 | 0.00 | 0.00 | 70 | 1019.5 |
| 20260906182012 | 80 | 155 | 1.0 | 9.0 | 0.00 | 0.00 | 0.00 | 72 | 1019.7 |
| 20260906181537 | 80 | 144 | 5.0 | 12.0 | 0.00 | 0.00 | 0.00 | 70 | 1019.7 |
| 20260906181007 | 80 | 134 | 1.0 | 12.0 | 0.00 | 0.00 | 0.00 | 70 | 1019.9 |
| 20260906180511 | 81 | 171 | 4.0 | 11.0 | 0.00 | 0.00 | 0.00 | 72 | 1020.0 |
| 20260906180003 | 80 | 144 | 3.0 | 8.0 | 0.00 | 0.00 | 0.00 | 74 | 1020.0 |
| 20260906175504 | 80 | 183 | 2.0 | 7.0 | 0.00 | 0.00 | 0.00 | 76 | 1020.2 |
| 20260906175011 | 80 | 217 | 1.0 | 11.0 | 0.00 | 0.00 | 0.00 | 72 | 1020.2 |
| 20260906174503 | 80 | 225 | 5.0 | 11.0 | 0.00 | 0.00 | 0.00 | 73 | 1020.3 |
| 20260906174008 | 80 | 183 | 2.0 | 9.0 | 0.00 | 0.00 | 0.00 | 72 | 1020.4 |
| 20260906173511 | 80 | 171 | 3.0 | 9.0 | 0.00 | 0.00 | 0.00 | 72 | 1020.5 |
| 20260906173004 | 80 | 186 | 3.0 | 7.0 | 0.00 | 0.00 | 0.00 | 74 | 1020.6 |
| 20260906172506 | 80 | 173 | 3.0 | 11.0 | 0.00 | 0.00 | 0.00 | 73 | 1020.8 |
| 20260906172012 | 80 | 208 | 1.0 | 11.0 | 0.00 | 0.00 | 0.00 | 76 | 1020.8 |
| 20260906171503 | 79 | 175 | 3.0 | 11.0 | 0.00 | 0.00 | 0.00 | 74 | 1021.0 |
| 20260906171006 | 79 | 192 | 2.0 | 10.0 | 0.00 | 0.00 | 0.00 | 76 | 1020.9 |
| 20260906170512 | 78 | 211 | 4.0 | 10.0 | 0.00 | 0.00 | 0.00 | 76 | 1021.0 |
| 20260906170005 | 78 | 163 | 1.0 | 10.0 | 0.00 | 0.00 | 0.00 | 76 | 1021.0 |
| 20260906165512 | 78 | 156 | 3.0 | 9.0 | 0.00 | 0.00 | 0.00 | 79 | 1021.1 |
| 20260906165015 | 77 | 240 | 0.0 | 7.0 | 0.00 | 0.00 | 0.00 | 82 | 1021.1 |
| 20260906164504 | 77 | 163 | 3.0 | 10.0 | 0.00 | 0.00 | 0.00 | 80 | 1021.1 |
| 20260906164009 | 76 | 203 | 1.0 | 10.0 | 0.00 | 0.00 | 0.00 | 81 | 1021.0 |
| 20260906163516 | 75 | 154 | 3.0 | 9.0 | 0.00 | 0.00 | 0.00 | 81 | 1021.0 |
| 20260906163008 | 75 | 174 | 3.0 | 7.0 | 0.00 | 0.00 | 0.00 | 81 | 1021.0 |
| 20260906162513 | 74 | 175 | 1.0 | 7.0 | 0.00 | 0.00 | 0.00 | 83 | 1021.0 |
| 20260906162012 | 73 | 175 | 2.0 | 5.0 | 0.00 | 0.00 | 0.00 | 84 | 1020.9 |
| 20260906161509 | 72 | 171 | 0.0 | 6.0 | 0.00 | 0.00 | 0.00 | 86 | 1021.0 |
| 20260906161010 | 71 | 203 | 1.0 | 6.0 | 0.00 | 0.00 | 0.00 | 87 | 1021.0 |
| 20260906160514 | 70 | 153 | 2.0 | 7.0 | 0.00 | 0.00 | 0.00 | 88 | 1021.1 |
| 20260906160008 | 70 | 169 | 2.0 | 7.0 | 0.00 | 0.00 | 0.00 | 86 | 1021.0 |
| 20260906155517 | 69 | 161 | 2.0 | 6.0 | 0.00 | 0.00 | 0.00 | 87 | 1020.9 |
| 20260906155016 | 69 | 211 | 1.0 | 4.0 | 0.00 | 0.00 | 0.00 | 87 | 1020.9 |
| 20260906154510 | 69 | 254 | 0.0 | 6.0 | 0.00 | 0.00 | 0.00 | 89 | 1020.8 |
| 20260906154011 | 68 | 155 | 2.0 | 7.0 | 0.00 | 0.00 | 0.00 | 89 | 1020.8 |
| 20260906153517 | 67 | 189 | 2.0 | 7.0 | 0.00 | 0.00 | 0.00 | 89 | 1020.9 |
| 20260906153022 | 67 | 158 | 4.0 | 7.0 | 0.00 | 0.00 | 0.00 | 89 | 1020.9 |
| 20260906152514 | 67 | 195 | 2.0 | 7.0 | 0.00 | 0.00 | 0.00 | 89 | 1021.0 |
| 20260906152015 | 66 | 138 | 2.0 | 7.0 | 0.00 | 0.00 | 0.00 | 89 | 1021.0 |
| 20260906151510 | 66 | 142 | 4.0 | 8.0 | 0.00 | 0.00 | 0.00 | 90 | 1021.0 |
| 20260906151018 | 66 | 179 | 3.0 | 8.0 | 0.00 | 0.00 | 0.00 | 91 | 1021.0 |
| 20260906150518 | 65 | 167 | 0.0 | 8.0 | 0.00 | 0.00 | 0.00 | 91 | 1020.8 |
| 20260906150014 | 65 | 185 | 4.0 | 7.0 | 0.00 | 0.00 | 0.00 | 91 | 1020.8 |
| 20260906145515 | 64 | 158 | 3.0 | 7.0 | 0.00 | 0.00 | 0.00 | 92 | 1020.8 |
| 20260906145014 | 64 | 126 | 2.0 | 7.0 | 0.00 | 0.00 | 0.00 | 92 | 1020.7 |
| 20260906144520 | 63 | 161 | 0.0 | 6.0 | 0.00 | 0.00 | 0.00 | 92 | 1020.9 |
| 20260906144015 | 63 | 161 | 4.0 | 6.0 | 0.00 | 0.00 | 0.00 | 93 | 1020.9 |
| 20260906143504 | 63 | 165 | 3.0 | 7.0 | 0.00 | 0.00 | 0.00 | 92 | 1020.9 |
| 20260906143016 | 62 | 136 | 2.0 | 7.0 | 0.00 | 0.00 | 0.00 | 93 | 1020.8 |
| 20260906142516 | 61 | 156 | 2.0 | 8.0 | 0.00 | 0.00 | 0.00 | 94 | 1020.8 |
| 20260906142004 | 61 | 159 | 1.0 | 8.0 | 0.00 | 0.00 | 0.00 | 95 | 1020.9 |
| 20260906141523 | 60 | 188 | 2.0 | 5.0 | 0.00 | 0.00 | 0.00 | 95 | 1021.0 |
| 20260906141014 | 60 | 157 | 1.0 | 7.0 | 0.00 | 0.00 | 0.00 | 95 | 1021.1 |
| 20260906140509 | 60 | 189 | 1.0 | 7.0 | 0.00 | 0.00 | 0.00 | 95 | 1021.5 |
| 20260906140019 | 60 | 156 | 3.0 | 6.0 | 0.00 | 0.00 | 0.00 | 96 | 1021.5 |
| 20260906135517 | 59 | 155 | 0.0 | 6.0 | 0.00 | 0.00 | 0.00 | 96 | 1021.5 |
| 20260906135007 | 59 | 140 | 0.0 | 5.0 | 0.00 | 0.00 | 0.00 | 96 | 1021.6 |
| 20260906134520 | 59 | 155 | 2.0 | 5.0 | 0.00 | 0.00 | 0.00 | 96 | 1021.5 |
| 20260906134014 | 59 | 188 | 2.0 | 4.0 | 0.00 | 0.00 | 0.00 | 96 | 1021.5 |
| 20260906133508 | 59 | 300 | 0.0 | 2.0 | 0.00 | 0.00 | 0.00 | 96 | 1021.7 |
| 20260906133023 | 59 | 300 | 0.0 | 2.0 | 0.00 | 0.00 | 0.00 | 96 | 1021.7 |
| 20260906132516 | 59 | 300 | 1.0 | 2.0 | 0.00 | 0.00 | 0.00 | 96 | 1021.9 |
| 20260906132007 | 58 | 77 | 0.0 | 7.0 | 0.00 | 0.00 | 0.00 | 96 | 1021.8 |
| 20260906131529 | 58 | 165 | 2.0 | 8.0 | 0.00 | 0.00 | 0.00 | 96 | 1021.1 |
| 20260906131018 | 58 | 190 | 2.0 | 8.0 | 0.00 | 0.00 | 0.00 | 96 | 1020.7 |
| 20260906130508 | 58 | 153 | 2.0 | 7.0 | 0.00 | 0.00 | 0.00 | 96 | 1020.8 |
| 20260906130025 | 58 | 117 | 2.0 | 7.0 | 0.00 | 0.00 | 0.00 | 96 | 1020.9 |
| 20260906125516 | 58 | 150 | 2.0 | 6.0 | 0.00 | 0.00 | 0.00 | 96 | 1020.9 |
| 20260906125011 | 58 | 161 | 3.0 | 6.0 | 0.00 | 0.00 | 0.00 | 96 | 1021.1 |
| 20260906124535 | 58 | 159 | 2.0 | 4.0 | 0.00 | 0.00 | 0.00 | 96 | 1021.3 |
| 20260906124018 | 58 | 158 | 0.0 | 4.0 | 0.00 | 0.00 | 0.00 | 96 | 1021.5 |
| 20260906123510 | 58 | 144 | 1.0 | 4.0 | 0.00 | 0.00 | 0.00 | 96 | 1021.3 |
| 20260906123034 | 57 | 149 | 0.0 | 3.0 | 0.00 | 0.00 | 0.00 | 96 | 1021.4 |
| 20260906122519 | 57 | 149 | 1.0 | 3.0 | 0.00 | 0.00 | 0.00 | 96 | 1021.4 |
| 20260906122012 | 57 | 149 | 0.0 | 0.0 | 0.00 | 0.01 | 0.00 | 96 | 1021.3 |
| 20260906121532 | 57 | 149 | 0.0 | 2.0 | 0.00 | 0.01 | 0.00 | 96 | 1021.1 |
| 20260906121017 | 57 | 149 | 0.0 | 2.0 | 0.00 | 0.01 | 0.00 | 96 | 1021.0 |
| 20260906120515 | 57 | 149 | 0.0 | 2.0 | 0.00 | 0.01 | 0.00 | 96 | 1020.9 |
| 20260906120031 | 57 | 149 | 0.0 | 2.0 | 0.00 | 0.01 | 0.00 | 96 | 1020.8 |
| 20260906115518 | 57 | 149 | 1.0 | 3.0 | 0.00 | 0.01 | 0.00 | 96 | 1020.7 |
| 20260906115011 | 57 | 141 | 1.0 | 4.0 | 0.00 | 0.01 | 0.00 | 96 | 1020.7 |
| 20260906114528 | 57 | 85 | 0.0 | 4.0 | 0.00 | 0.01 | 0.00 | 96 | 1020.6 |
| 20260906114017 | 57 | 84 | 2.0 | 4.0 | 0.00 | 0.01 | 0.00 | 96 | 1020.6 |
| 20260906113514 | 56 | 135 | 1.0 | 2.0 | 0.00 | 0.01 | 0.00 | 96 | 1020.5 |
| 20260906113030 | 56 | 135 | 1.0 | 2.0 | 0.00 | 0.01 | 0.00 | 96 | 1020.6 |
| 20260906112515 | 56 | 135 | 0.0 | 2.0 | 0.00 | 0.01 | 0.00 | 96 | 1020.6 |
| 20260906112017 | 56 | 135 | 0.0 | 3.0 | 0.00 | 0.01 | 0.00 | 96 | 1020.7 |
| 20260906111532 | 56 | 152 | 0.0 | 3.0 | 0.00 | 0.01 | 0.00 | 96 | 1020.6 |
| 20260906111011 | 56 | 160 | 0.0 | 3.0 | 0.00 | 0.01 | 0.00 | 96 | 1020.6 |
| 20260906110512 | 56 | 160 | 0.0 | 3.0 | 0.00 | 0.01 | 0.00 | 96 | 1020.4 |
| 20260906110031 | 57 | 173 | 1.0 | 4.0 | 0.00 | 0.01 | 0.00 | 96 | 1020.3 |
| 20260906105510 | 57 | 155 | 1.0 | 4.0 | 0.00 | 0.01 | 0.00 | 96 | 1020.1 |
| 20260906105014 | 57 | 153 | 1.0 | 4.0 | 0.00 | 0.01 | 0.00 | 96 | 1019.8 |
| 20260906104532 | 57 | 145 | 0.0 | 3.0 | 0.00 | 0.01 | 0.00 | 96 | 1019.7 |
| 20260906104012 | 57 | 147 | 1.0 | 5.0 | 0.00 | 0.01 | 0.00 | 96 | 1019.7 |
| 20260906103514 | 57 | 143 | 0.0 | 5.0 | 0.00 | 0.01 | 0.00 | 96 | 1019.7 |
| 20260906103042 | 57 | 184 | 0.0 | 4.0 | 0.00 | 0.01 | 0.00 | 96 | 1019.5 |
| 20260906102516 | 57 | 136 | 2.0 | 4.0 | 0.00 | 0.01 | 0.00 | 96 | 1019.5 |
| 20260906102016 | 57 | 108 | 0.0 | 5.0 | 0.00 | 0.01 | 0.00 | 96 | 1019.7 |
| 20260906101534 | 57 | 156 | 1.0 | 5.0 | 0.00 | 0.01 | 0.00 | 96 | 1019.7 |
| 20260906101003 | 57 | 145 | 2.0 | 4.0 | 0.00 | 0.01 | 0.00 | 95 | 1019.7 |
| 20260906100503 | 57 | 143 | 0.0 | 3.0 | 0.00 | 0.01 | 0.00 | 95 | 1019.7 |
| 20260906100023 | 57 | 143 | 1.0 | 3.0 | 0.00 | 0.01 | 0.00 | 95 | 1019.8 |
| 20260906095502 | 57 | 127 | 0.0 | 3.0 | 0.00 | 0.01 | 0.00 | 95 | 1019.8 |
| 20260906095003 | 57 | 105 | 0.0 | 3.0 | 0.00 | 0.01 | 0.00 | 95 | 1019.8 |
| 20260906094512 | 57 | 105 | 0.0 | 3.0 | 0.00 | 0.01 | 0.00 | 95 | 1019.9 |
| 20260906094003 | 57 | 103 | 0.0 | 2.0 | 0.00 | 0.01 | 0.00 | 95 | 1019.9 |
| 20260906093506 | 58 | 103 | 0.0 | 3.0 | 0.00 | 0.01 | 0.00 | 95 | 1019.8 |
| 20260906093016 | 58 | 142 | 1.0 | 3.0 | 0.00 | 0.01 | 0.00 | 96 | 1019.8 |
| 20260906092502 | 58 | 107 | 1.0 | 2.0 | 0.00 | 0.01 | 0.00 | 96 | 1019.9 |
| 20260906092006 | 58 | 92 | 0.0 | 2.0 | 0.00 | 0.01 | 0.00 | 96 | 1019.9 |
| 20260906091517 | 58 | 90 | 1.0 | 2.0 | 0.00 | 0.01 | 0.00 | 96 | 1019.9 |
| 20260906091003 | 58 | 102 | 1.0 | 4.0 | 0.00 | 0.01 | 0.00 | 96 | 1020.0 |
| 20260906090507 | 58 | 94 | 1.0 | 6.0 | 0.00 | 0.01 | 0.00 | 96 | 1019.8 |
| 20260906090015 | 58 | 140 | 1.0 | 6.0 | 0.00 | 0.01 | 0.00 | 96 | 1019.7 |
| 20260906085505 | 58 | 122 | 1.0 | 5.0 | 0.00 | 0.01 | 0.00 | 95 | 1019.7 |
| 20260906085003 | 58 | 147 | 0.0 | 3.0 | 0.00 | 0.01 | 0.00 | 95 | 1019.6 |
| 20260906084518 | 58 | 150 | 0.0 | 2.0 | 0.00 | 0.01 | 0.00 | 95 | 1019.6 |
| 20260906084005 | 58 | 97 | 0.0 | 0.0 | 0.00 | 0.01 | 0.00 | 95 | 1019.7 |
| 20260906083507 | 58 | 94 | 0.0 | 4.0 | 0.00 | 0.01 | 0.00 | 95 | 1019.8 |
| 20260906083023 | 58 | 94 | 0.0 | 4.0 | 0.00 | 0.01 | 0.00 | 95 | 1019.8 |
| 20260906082502 | 58 | 137 | 0.0 | 4.0 | 0.00 | 0.01 | 0.00 | 95 | 1019.8 |
| 20260906082006 | 59 | 112 | 0.0 | 3.0 | 0.00 | 0.01 | 0.00 | 95 | 1019.8 |
| 20260906081526 | 59 | 136 | 0.0 | 3.0 | 0.00 | 0.01 | 0.00 | 96 | 1019.8 |
| 20260906081003 | 58 | 88 | 1.0 | 4.0 | 0.00 | 0.01 | 0.00 | 95 | 1019.8 |
| 20260906080508 | 58 | 130 | 1.0 | 4.0 | 0.00 | 0.01 | 0.00 | 95 | 1019.7 |
| 20260906080002 | 59 | 107 | 0.0 | 3.0 | 0.00 | 0.01 | 0.00 | 95 | 1019.8 |
| 20260906075502 | 59 | 141 | 0.0 | 2.0 | 0.00 | 0.01 | 0.00 | 95 | 1019.8 |
| 20260906075008 | 59 | 104 | 0.0 | 4.0 | 0.00 | 0.01 | 0.00 | 95 | 1019.7 |
| 20260906074504 | 59 | 92 | 2.0 | 4.0 | 0.00 | 0.01 | 0.00 | 95 | 1019.9 |
| 20260906074003 | 59 | 94 | 1.0 | 2.0 | 0.00 | 0.01 | 0.00 | 95 | 1020.0 |
| 20260906073509 | 59 | 109 | 0.0 | 3.0 | 0.00 | 0.01 | 0.00 | 95 | 1019.9 |
| 20260906073004 | 59 | 150 | 1.0 | 3.0 | 0.00 | 0.01 | 0.00 | 95 | 1019.9 |
| 20260906072504 | 59 | 133 | 0.0 | 3.0 | 0.00 | 0.01 | 0.00 | 95 | 1020.1 |
| 20260906072013 | 59 | 94 | 0.0 | 3.0 | 0.00 | 0.01 | 0.00 | 95 | 1020.1 |
| 20260906071503 | 59 | 95 | 1.0 | 2.0 | 0.00 | 0.01 | 0.00 | 95 | 1020.3 |
| 20260906071007 | 59 | 137 | 0.0 | 3.0 | 0.00 | 0.01 | 0.00 | 95 | 1020.2 |
| 20260906070510 | 59 | 138 | 1.0 | 3.0 | 0.00 | 0.01 | 0.00 | 94 | 1020.2 |
| 20260906070003 | 59 | 137 | 1.0 | 3.0 | 0.00 | 0.01 | 0.00 | 95 | 1020.2 |
| 20260906065508 | 59 | 143 | 0.0 | 3.0 | 0.00 | 0.01 | 0.00 | 95 | 1020.4 |
| 20260906065015 | 59 | 143 | 1.0 | 4.0 | 0.00 | 0.01 | 0.00 | 94 | 1020.3 |
| 20260906064504 | 60 | 135 | 1.0 | 4.0 | 0.00 | 0.01 | 0.00 | 94 | 1020.3 |
| 20260906064008 | 60 | 157 | 2.0 | 3.0 | 0.00 | 0.01 | 0.00 | 94 | 1020.4 |
| 20260906063515 | 60 | 146 | 1.0 | 3.0 | 0.00 | 0.01 | 0.00 | 94 | 1020.5 |
| 20260906063003 | 60 | 153 | 1.0 | 2.0 | 0.00 | 0.01 | 0.00 | 94 | 1020.5 |
| 20260906062505 | 60 | 135 | 0.0 | 2.0 | 0.00 | 0.01 | 0.00 | 94 | 1020.6 |
| 20260906062014 | 60 | 167 | 0.0 | 0.0 | 0.00 | 0.01 | 0.00 | 95 | 1020.6 |
| 20260906061509 | 61 | 167 | 0.0 | 0.0 | 0.00 | 0.01 | 0.00 | 95 | 1020.9 |
| 20260906061016 | 61 | 167 | 0.0 | 0.0 | 0.00 | 0.01 | 0.00 | 95 | 1020.7 |
| 20260906060516 | 61 | 167 | 0.0 | 0.0 | 0.00 | 0.01 | 0.00 | 94 | 1020.7 |
| 20260906060005 | 61 | 167 | 0.0 | 0.0 | 0.00 | 0.01 | 0.00 | 94 | 1020.6 |
| 20260906055513 | 61 | 167 | 0.0 | 0.0 | 0.00 | 0.01 | 0.00 | 94 | 1020.4 |
| 20260906055016 | 61 | 167 | 0.0 | 0.0 | 0.00 | 0.01 | 0.00 | 94 | 1020.4 |
| 20260906054522 | 61 | 167 | 0.0 | 0.0 | 0.00 | 0.01 | 0.00 | 94 | 1020.3 |
| 20260906054014 | 61 | 167 | 0.0 | 0.0 | 0.00 | 0.01 | 0.00 | 94 | 1020.3 |
| 20260906053516 | 62 | 167 | 0.0 | 3.0 | 0.00 | 0.01 | 0.00 | 94 | 1020.5 |
| 20260906053008 | 62 | 167 | 0.0 | 3.0 | 0.00 | 0.01 | 0.00 | 94 | 1020.4 |
| 20260906052512 | 62 | 167 | 1.0 | 3.0 | 0.00 | 0.01 | 0.00 | 94 | 1020.3 |
| 20260906052015 | 62 | 147 | 1.0 | 5.0 | 0.00 | 0.01 | 0.00 | 94 | 1020.2 |
| 20260906051510 | 62 | 166 | 1.0 | 8.0 | 0.00 | 0.01 | 0.00 | 94 | 1020.2 |
| 20260906051013 | 62 | 178 | 2.0 | 8.0 | 0.00 | 0.01 | 0.00 | 94 | 1020.2 |
| 20260906050521 | 62 | 140 | 2.0 | 5.0 | 0.00 | 0.01 | 0.00 | 94 | 1020.1 |
| 20260906050010 | 62 | 161 | 2.0 | 5.0 | 0.00 | 0.01 | 0.00 | 93 | 1020.2 |
| 20260906045512 | 62 | 156 | 1.0 | 3.0 | 0.00 | 0.01 | 0.01 | 93 | 1020.2 |
| 20260906045014 | 62 | 156 | 0.0 | 4.0 | 0.00 | 0.01 | 0.01 | 93 | 1020.3 |
| 20260906044512 | 62 | 182 | 1.0 | 4.0 | 0.00 | 0.01 | 0.01 | 92 | 1020.2 |
| 20260906044011 | 62 | 155 | 1.0 | 3.0 | 0.00 | 0.01 | 0.01 | 92 | 1020.2 |
| 20260906043514 | 63 | 155 | 0.0 | 3.0 | 0.00 | 0.01 | 0.01 | 92 | 1020.3 |
| 20260906043020 | 63 | 155 | 0.0 | 4.0 | 0.00 | 0.01 | 0.01 | 92 | 1020.4 |
| 20260906042512 | 63 | 152 | 1.0 | 5.0 | 0.00 | 0.01 | 0.01 | 92 | 1020.3 |
| 20260906042004 | 63 | 182 | 2.0 | 6.0 | 0.00 | 0.01 | 0.01 | 92 | 1020.2 |
| 20260906041514 | 63 | 205 | 2.0 | 6.0 | 0.00 | 0.01 | 0.01 | 92 | 1020.2 |
| 20260906041016 | 63 | 177 | 0.0 | 7.0 | 0.00 | 0.01 | 0.01 | 92 | 1020.2 |
| 20260906040504 | 63 | 173 | 2.0 | 9.0 | 0.00 | 0.01 | 0.01 | 93 | 1020.1 |
| 20260906040013 | 63 | 177 | 5.0 | 9.0 | 0.00 | 0.01 | 0.01 | 93 | 1020.1 |
| 20260906035513 | 63 | 159 | 3.0 | 8.0 | 0.00 | 0.01 | 0.01 | 93 | 1020.4 |
| 20260906035006 | 63 | 194 | 4.0 | 8.0 | 0.00 | 0.01 | 0.01 | 93 | 1020.4 |
| 20260906034517 | 63 | 161 | 1.0 | 8.0 | 0.00 | 0.01 | 0.01 | 93 | 1020.4 |
| 20260906034014 | 63 | 156 | 3.0 | 8.0 | 0.00 | 0.01 | 0.01 | 93 | 1020.4 |
| 20260906033506 | 63 | 168 | 2.0 | 9.0 | 0.00 | 0.01 | 0.01 | 93 | 1020.4 |
| 20260906033018 | 63 | 164 | 3.0 | 8.0 | 0.00 | 0.01 | 0.01 | 93 | 1020.3 |
| 20260906032513 | 63 | 154 | 3.0 | 8.0 | 0.00 | 0.01 | 0.01 | 92 | 1020.3 |
| 20260906032011 | 63 | 134 | 3.0 | 10.0 | 0.00 | 0.01 | 0.01 | 92 | 1020.3 |
| 20260906031521 | 64 | 169 | 3.0 | 10.0 | 0.00 | 0.01 | 0.01 | 92 | 1020.3 |
| 20260906031020 | 64 | 155 | 4.0 | 7.0 | 0.00 | 0.01 | 0.01 | 92 | 1020.3 |
| 20260906030506 | 64 | 160 | 3.0 | 7.0 | 0.00 | 0.01 | 0.01 | 92 | 1020.2 |
| 20260906030020 | 64 | 166 | 2.0 | 7.0 | 0.00 | 0.02 | 0.01 | 92 | 1020.3 |
| 20260906025516 | 64 | 167 | 3.0 | 6.0 | 0.00 | 0.02 | 0.01 | 92 | 1020.3 |
| 20260906025008 | 64 | 211 | 3.0 | 5.0 | 0.00 | 0.02 | 0.01 | 92 | 1020.3 |
| 20260906024524 | 64 | 175 | 1.0 | 8.0 | 0.00 | 0.02 | 0.01 | 92 | 1020.2 |
| 20260906024018 | 64 | 167 | 2.0 | 8.0 | 0.00 | 0.02 | 0.01 | 92 | 1020.1 |
| 20260906023510 | 65 | 181 | 2.0 | 5.0 | 0.00 | 0.02 | 0.01 | 92 | 1020.1 |
| 20260906023025 | 65 | 171 | 0.0 | 5.0 | 0.00 | 0.02 | 0.01 | 92 | 1020.1 |
| 20260906022515 | 65 | 157 | 3.0 | 6.0 | 0.00 | 0.02 | 0.01 | 92 | 1020.0 |
| 20260906022011 | 65 | 177 | 2.0 | 7.0 | 0.00 | 0.02 | 0.01 | 92 | 1019.8 |
| 20260906021538 | 65 | 175 | 3.0 | 7.0 | 0.00 | 0.02 | 0.01 | 92 | 1019.6 |
| 20260906021018 | 65 | 150 | 3.0 | 7.0 | 0.00 | 0.02 | 0.01 | 91 | 1019.3 |
| 20260906020515 | 65 | 156 | 3.0 | 7.0 | 0.00 | 0.02 | 0.01 | 91 | 1019.1 |
| 20260906020025 | 65 | 148 | 2.0 | 7.0 | 0.00 | 0.02 | 0.01 | 91 | 1019.0 |
| 20260906015517 | 65 | 130 | 3.0 | 7.0 | 0.00 | 0.02 | 0.01 | 91 | 1019.1 |
| 20260906015011 | 65 | 161 | 0.0 | 6.0 | 0.00 | 0.02 | 0.01 | 91 | 1019.1 |
| 20260906014529 | 65 | 153 | 1.0 | 6.0 | 0.00 | 0.02 | 0.01 | 90 | 1018.9 |
| 20260906014020 | 65 | 102 | 2.0 | 6.0 | 0.00 | 0.02 | 0.01 | 90 | 1018.8 |
| 20260906013512 | 65 | 142 | 1.0 | 6.0 | 0.00 | 0.02 | 0.01 | 90 | 1018.7 |
| 20260906013038 | 65 | 113 | 1.0 | 7.0 | 0.00 | 0.02 | 0.01 | 90 | 1018.6 |
| 20260906012521 | 65 | 161 | 0.0 | 7.0 | 0.00 | 0.02 | 0.01 | 90 | 1018.5 |
| 20260906012012 | 66 | 178 | 3.0 | 7.0 | 0.00 | 0.02 | 0.01 | 89 | 1018.4 |
| 20260906011533 | 66 | 119 | 1.0 | 6.0 | 0.00 | 0.02 | 0.01 | 88 | 1018.3 |
| 20260906011006 | 66 | 132 | 0.0 | 3.0 | 0.00 | 0.02 | 0.01 | 88 | 1018.2 |
| 20260906010505 | 66 | 114 | 1.0 | 3.0 | 0.00 | 0.02 | 0.01 | 87 | 1018.3 |
| 20260906010005 | 67 | 140 | 0.0 | 4.0 | 0.00 | 0.02 | 0.01 | 87 | 1018.3 |
| 20260906005507 | 67 | 107 | 0.0 | 4.0 | 0.00 | 0.02 | 0.01 | 87 | 1018.5 |
| 20260906005003 | 67 | 139 | 0.0 | 4.0 | 0.00 | 0.02 | 0.01 | 86 | 1018.4 |
| 20260906004504 | 68 | 140 | 1.0 | 5.0 | 0.00 | 0.02 | 0.01 | 86 | 1018.4 |
| 20260906004010 | 68 | 150 | 1.0 | 8.0 | 0.00 | 0.02 | 0.01 | 85 | 1018.3 |
| 20260906003502 | 68 | 87 | 3.0 | 8.0 | 0.00 | 0.02 | 0.01 | 85 | 1018.3 |
| 20260906003015 | 69 | 136 | 2.0 | 8.0 | 0.00 | 0.02 | 0.01 | 85 | 1018.2 |
| 20260906002510 | 69 | 170 | 3.0 | 8.0 | 0.00 | 0.02 | 0.01 | 84 | 1018.1 |
| 20260906002003 | 69 | 156 | 3.0 | 10.0 | 0.00 | 0.02 | 0.01 | 84 | 1018.2 |
| 20260906001512 | 69 | 140 | 2.0 | 10.0 | 0.00 | 0.02 | 0.01 | 83 | 1018.2 |
| 20260906001012 | 70 | 130 | 4.0 | 11.0 | 0.00 | 0.02 | 0.01 | 84 | 1018.2 |
| 20260906000503 | 70 | 131 | 4.0 | 11.0 | 0.00 | 0.02 | 0.01 | 83 | 1018.2 |
| 20260906000010 | 70 | 153 | 4.0 | 8.0 | 0.00 | 0.02 | 0.01 | 83 | 1018.3 |
| 20260905235510 | 70 | 153 | 0.0 | 9.0 | 0.00 | 0.02 | 0.01 | 83 | 1018.4 |
| 20260905235003 | 70 | 141 | 1.0 | 10.0 | 0.00 | 0.02 | 0.01 | 83 | 1018.4 |
| 20260905234510 | 70 | 174 | 5.0 | 10.0 | 0.00 | 0.02 | 0.01 | 83 | 1018.6 |
| 20260905234014 | 70 | 119 | 4.0 | 10.0 | 0.00 | 0.02 | 0.01 | 83 | 1018.5 |
| 20260905233503 | 70 | 122 | 2.0 | 9.0 | 0.00 | 0.02 | 0.01 | 84 | 1018.5 |
| 20260905233017 | 70 | 188 | 2.0 | 7.0 | 0.00 | 0.02 | 0.01 | 84 | 1018.6 |
| 20260905232514 | 70 | 103 | 1.0 | 7.0 | 0.00 | 0.02 | 0.01 | 84 | 1018.6 |
| 20260905232004 | 70 | 143 | 1.0 | 9.0 | 0.00 | 0.02 | 0.01 | 84 | 1018.5 |
| 20260905231512 | 70 | 163 | 0.0 | 12.0 | 0.00 | 0.02 | 0.01 | 83 | 1018.4 |
| 20260905231013 | 70 | 159 | 6.0 | 12.0 | 0.00 | 0.02 | 0.01 | 83 | 1018.3 |
| 20260905230504 | 70 | 148 | 5.0 | 10.0 | 0.00 | 0.02 | 0.01 | 83 | 1018.1 |
| 20260905230014 | 70 | 150 | 2.0 | 12.0 | 0.00 | 0.02 | 0.01 | 84 | 1017.8 |
| 20260905225514 | 70 | 131 | 3.0 | 12.0 | 0.00 | 0.02 | 0.01 | 83 | 1018.0 |
| 20260905225003 | 71 | 177 | 4.0 | 11.0 | 0.00 | 0.02 | 0.01 | 83 | 1017.8 |
| 20260905224519 | 70 | 142 | 2.0 | 11.0 | 0.00 | 0.02 | 0.01 | 84 | 1018.1 |
| 20260905224014 | 70 | 189 | 1.0 | 11.0 | 0.00 | 0.02 | 0.01 | 83 | 1018.2 |
| 20260905223507 | 70 | 133 | 3.0 | 9.0 | 0.00 | 0.02 | 0.01 | 83 | 1018.2 |
| 20260905223018 | 70 | 134 | 1.0 | 8.0 | 0.00 | 0.02 | 0.01 | 82 | 1018.4 |
| 20260905222517 | 70 | 79 | 2.0 | 11.0 | 0.00 | 0.02 | 0.01 | 82 | 1018.4 |
| 20260905222007 | 70 | 129 | 5.0 | 11.0 | 0.00 | 0.02 | 0.01 | 82 | 1018.3 |
| 20260905221520 | 70 | 151 | 3.0 | 7.0 | 0.00 | 0.02 | 0.01 | 83 | 1018.6 |
| 20260905221015 | 70 | 119 | 1.0 | 11.0 | 0.00 | 0.02 | 0.01 | 81 | 1018.9 |
| 20260905220506 | 70 | 184 | 5.0 | 11.0 | 0.00 | 0.02 | 0.01 | 82 | 1018.6 |
| 20260905220018 | 70 | 150 | 1.0 | 6.0 | 0.00 | 0.02 | 0.01 | 83 | 1018.6 |
| 20260905215516 | 70 | 126 | 1.0 | 7.0 | 0.00 | 0.02 | 0.01 | 82 | 1018.9 |
| 20260905215006 | 70 | 168 | 3.0 | 7.0 | 0.00 | 0.02 | 0.01 | 82 | 1018.9 |
| 20260905214523 | 70 | 96 | 3.0 | 7.0 | 0.00 | 0.02 | 0.01 | 82 | 1018.8 |
| 20260905214004 | 70 | 111 | 2.0 | 8.0 | 0.00 | 0.02 | 0.01 | 83 | 1018.7 |
| 20260905213509 | 70 | 134 | 4.0 | 9.0 | 0.00 | 0.02 | 0.01 | 83 | 1018.7 |
| 20260905213025 | 70 | 167 | 4.0 | 9.0 | 0.00 | 0.02 | 0.01 | 83 | 1019.0 |
| 20260905212503 | 69 | 154 | 0.0 | 4.0 | 0.00 | 0.02 | 0.01 | 83 | 1019.2 |
| 20260905212007 | 69 | 163 | 0.0 | 4.0 | 0.00 | 0.02 | 0.01 | 83 | 1019.4 |
| 20260905211525 | 69 | 152 | 0.0 | 3.0 | 0.00 | 0.02 | 0.01 | 83 | 1019.6 |
| 20260905211004 | 69 | 197 | 0.0 | 2.0 | 0.00 | 0.02 | 0.01 | 83 | 1019.6 |
| 20260905210507 | 69 | 189 | 1.0 | 4.0 | 0.00 | 0.02 | 0.01 | 83 | 1019.7 |
| 20260905210027 | 69 | 179 | 0.0 | 4.0 | 0.00 | 0.02 | 0.01 | 82 | 1019.7 |
| 20260905205503 | 69 | 111 | 1.0 | 3.0 | 0.00 | 0.02 | 0.01 | 82 | 1019.7 |
| 20260905205011 | 69 | 159 | 0.0 | 4.0 | 0.00 | 0.02 | 0.01 | 84 | 1019.7 |
| 20260905204527 | 69 | 175 | 1.0 | 4.0 | 0.00 | 0.02 | 0.01 | 85 | 1019.8 |
| 20260905204005 | 69 | 103 | 1.0 | 4.0 | 0.00 | 0.02 | 0.01 | 84 | 1019.9 |
| 20260905203511 | 69 | 141 | 0.0 | 2.0 | 0.00 | 0.02 | 0.01 | 85 | 1019.9 |
| 20260905203028 | 69 | 75 | 0.0 | 2.0 | 0.00 | 0.02 | 0.01 | 85 | 1020.1 |
| 20260905202506 | 68 | 112 | 0.0 | 3.0 | 0.00 | 0.02 | 0.01 | 85 | 1020.2 |
| 20260905202010 | 68 | 112 | 1.0 | 3.0 | 0.00 | 0.02 | 0.01 | 85 | 1020.3 |